�������l�o���
Date,Time,MP-1(��Sv/h),MP-2(��Sv/h),MP-3(��Sv/h),MP-4(��Sv/h),MP-5(��Sv/h),MP-6(��Sv/h),MP-7(��Sv/h),MP-8(��Sv/h),����,����(m/s),���J
2020/12/03,00:00,0.673,0.965,0.612,1.212,0.855,0.383,0.676,0.635,���쐼,1.9,�L
2020/12/03,00:10,0.671,0.967,0.612,1.213,0.856,0.384,0.676,0.635,���쐼,1.5,�L
2020/12/03,00:20,0.671,0.967,0.612,1.213,0.856,0.385,0.674,0.635,�k��,1.2,�L
2020/12/03,00:30,0.673,0.967,0.611,1.213,0.854,0.384,0.676,0.635,���k��,1.7,�L
2020/12/03,00:40,0.670,0.966,0.611,1.211,0.854,0.384,0.677,0.634,���k��,2.0,�L
2020/12/03,00:50,0.671,0.967,0.611,1.213,0.855,0.383,0.676,0.636,�k��,2.3,�L
2020/12/03,01:00,0.670,0.967,0.611,1.213,0.854,0.383,0.676,0.635,�k��,3.3,�L
2020/12/03,01:10,0.672,0.964,0.610,1.213,0.852,0.382,0.676,0.636,�k��,3.9,��
2020/12/03,01:20,0.670,0.963,0.611,1.213,0.855,0.383,0.675,0.635,�k��,4.1,�L
2020/12/03,01:30,0.671,0.967,0.611,1.212,0.855,0.384,0.675,0.634,�k��,4.8,�L
2020/12/03,01:40,0.671,0.964,0.610,1.210,0.853,0.382,0.677,0.633,�k��,4.7,��
2020/12/03,01:50,0.671,0.964,0.609,1.211,0.855,0.383,0.677,0.635,�k��,4.8,��
2020/12/03,02:00,0.671,0.967,0.610,1.209,0.855,0.383,0.676,0.635,�k�k��,4.8,��
2020/12/03,02:10,0.673,0.965,0.612,1.208,0.854,0.384,0.675,0.636,�k�k��,6.4,�L
2020/12/03,02:20,0.671,0.964,0.610,1.212,0.853,0.383,0.675,0.634,�k�k��,5.7,�L
2020/12/03,02:30,0.671,0.966,0.611,1.211,0.854,0.383,0.677,0.635,�k�k��,4.7,�L
2020/12/03,02:40,0.674,0.966,0.612,1.213,0.852,0.384,0.675,0.634,�k�k��,5.1,�L
2020/12/03,02:50,0.672,0.961,0.612,1.213,0.851,0.384,0.675,0.634,�k�k��,4.7,�L
2020/12/03,03:00,0.671,0.962,0.611,1.213,0.852,0.385,0.676,0.634,�k�k��,4.4,�L
2020/12/03,03:10,0.672,0.965,0.612,1.212,0.852,0.385,0.676,0.635,�k�k��,3.5,�L
2020/12/03,03:20,0.669,0.963,0.614,1.211,0.854,0.385,0.675,0.634,�k�k��,3.1,�L
2020/12/03,03:30,0.671,0.963,0.612,1.212,0.852,0.385,0.675,0.635,�k�k��,3.1,�L
2020/12/03,03:40,0.672,0.962,0.611,1.211,0.852,0.384,0.676,0.635,�k�k��,3.5,�L
2020/12/03,03:50,0.670,0.963,0.610,1.210,0.853,0.384,0.675,0.634,�k��,3.1,�L
2020/12/03,04:00,0.671,0.962,0.612,1.208,0.850,0.384,0.674,0.635,�k��,2.9,�L
2020/12/03,04:10,0.669,0.960,0.609,1.209,0.852,0.384,0.674,0.634,�k��,3.1,�L
2020/12/03,04:20,0.667,0.960,0.609,1.211,0.850,0.385,0.676,0.633,�k��,2.9,�L
2020/12/03,04:30,0.668,0.961,0.609,1.210,0.848,0.385,0.674,0.634,�k��,3.6,�L
2020/12/03,04:40,0.668,0.958,0.608,1.210,0.848,0.384,0.672,0.633,�k��,3.7,�L
2020/12/03,04:50,0.668,0.958,0.610,1.208,0.849,0.385,0.675,0.634,�k��,3.9,�L
2020/12/03,05:00,0.667,0.960,0.610,1.209,0.847,0.383,0.675,0.633,�k��,3.8,�L
2020/12/03,05:10,0.667,0.960,0.606,1.206,0.847,0.382,0.675,0.632,�k��,3.9,�L
2020/12/03,05:20,0.667,0.958,0.607,1.206,0.849,0.383,0.673,0.634,�k��,3.9,�L
2020/12/03,05:30,0.665,0.956,0.606,1.206,0.847,0.382,0.674,0.633,�k�k��,4.5,��
2020/12/03,05:40,0.668,0.956,0.606,1.208,0.847,0.383,0.673,0.634,�k�k��,4.2,��
2020/12/03,05:50,0.667,0.958,0.607,1.207,0.848,0.382,0.673,0.633,�k�k��,4.3,��
2020/12/03,06:00,0.666,0.959,0.607,1.206,0.848,0.381,0.673,0.633,�k��,3.8,��
2020/12/03,06:10,0.664,0.957,0.608,1.206,0.847,0.381,0.672,0.632,�k��,3.1,��
2020/12/03,06:20,0.667,0.957,0.608,1.205,0.848,0.382,0.671,0.634,�k��,3.8,�L
2020/12/03,06:30,0.666,0.957,0.608,1.205,0.846,0.380,0.673,0.632,�k��,4.1,��
2020/12/03,06:40,0.666,0.957,0.607,1.207,0.847,0.381,0.673,0.633,���k��,3.6,��
2020/12/03,06:50,0.664,0.956,0.605,1.206,0.847,0.379,0.674,0.631,���k��,4.2,��
2020/12/03,07:00,0.667,0.958,0.608,1.205,0.845,0.381,0.672,0.633,�k��,3.5,��
2020/12/03,07:10,0.666,0.957,0.608,1.206,0.847,0.382,0.674,0.633,�k��,3.3,��
2020/12/03,07:20,0.665,0.956,0.606,1.208,0.847,0.381,0.673,0.632,�k��,3.1,��
2020/12/03,07:30,0.665,0.958,0.607,1.209,0.847,0.381,0.673,0.632,�k�k��,3.6,��
2020/12/03,07:40,0.666,0.958,0.606,1.207,0.847,0.380,0.672,0.633,�k��,3.9,��
2020/12/03,07:50,0.666,0.958,0.607,1.206,0.847,0.380,0.673,0.632,�k��,3.9,��
2020/12/03,08:00,0.667,0.956,0.607,1.205,0.847,0.382,0.672,0.634,�k��,3.9,��
2020/12/03,08:10,0.666,0.957,0.609,1.205,0.846,0.381,0.672,0.632,�k��,2.9,��
2020/12/03,08:20,0.666,0.954,0.608,1.205,0.847,0.380,0.672,0.633,�k��,3.5,��
2020/12/03,08:30,0.665,0.954,0.607,1.209,0.847,0.381,0.672,0.631,�k��,3.6,��
2020/12/03,08:40,0.665,0.958,0.608,1.207,0.847,0.380,0.672,0.632,�k��,4.0,��
2020/12/03,08:50,0.667,0.956,0.606,1.206,0.847,0.380,0.673,0.632,�k��,2.9,��
2020/12/03,09:00,0.667,0.955,0.606,1.207,0.847,0.382,0.672,0.633,�k��,3.1,��
2020/12/03,09:10,0.667,0.957,0.607,1.207,0.848,0.381,0.675,0.633,�k��,2.6,��
2020/12/03,09:20,0.667,0.954,0.607,1.209,0.838,0.382,0.674,0.633,�k��,2.3,��
2020/12/03,09:30,0.666,0.955,0.608,1.208,0.849,0.381,0.672,0.633,�k��,2.0,��
2020/12/03,09:40,0.666,0.956,0.607,1.206,0.847,0.381,0.674,0.634,�k��,2.0,��
2020/12/03,09:50,0.668,0.954,0.609,1.207,0.846,0.381,0.673,0.633,�k��,1.5,��
2020/12/03,10:00,0.668,0.958,0.607,1.209,0.847,0.381,0.674,0.633,�k��,1.2,��
2020/12/03,10:10,0.666,0.957,0.606,1.207,0.848,0.381,0.672,0.633,�k�k��,2.3,��
2020/12/03,10:20,0.667,0.955,0.608,1.209,0.848,0.383,0.673,0.634,�k�k��,1.5,��
2020/12/03,10:30,0.668,0.954,0.608,1.209,0.847,0.382,0.673,0.633,�k�k��,2.0,��
2020/12/03,10:40,0.667,0.958,0.607,1.210,0.849,0.382,0.673,0.633,�k,3.1,��
2020/12/03,10:50,0.666,0.956,0.609,1.209,0.850,0.383,0.674,0.633,�k�k��,2.0,��
2020/12/03,11:00,0.666,0.957,0.608,1.206,0.850,0.381,0.673,0.634,�k,2.3,��
2020/12/03,11:10,0.667,0.958,0.608,1.208,0.851,0.382,0.673,0.634,�k�k��,2.9,��
2020/12/03,11:20,0.669,0.957,0.608,1.209,0.850,0.381,0.673,0.634,�k�k��,2.2,��
2020/12/03,11:30,0.669,0.956,0.609,1.207,0.850,0.382,0.673,0.634,�k�k��,2.5,��
2020/12/03,11:40,0.671,0.956,0.608,1.209,0.851,0.381,0.673,0.635,�k�k��,4.1,��
2020/12/03,11:50,0.669,0.962,0.610,1.209,0.853,0.382,0.672,0.635,�k,3.6,��
2020/12/03,12:00,0.671,0.962,0.611,1.212,0.852,0.381,0.672,0.634,�k,3.9,��
2020/12/03,12:10,0.670,0.961,0.611,1.210,0.855,0.383,0.673,0.634,�k�k��,3.6,��
2020/12/03,12:20,0.671,0.962,0.611,1.209,0.851,0.381,0.674,0.633,�k�k��,3.4,��
2020/12/03,12:30,0.671,0.961,0.611,1.209,0.853,0.381,0.673,0.635,�k,3.0,��
2020/12/03,12:40,0.670,0.962,0.610,1.208,0.852,0.381,0.674,0.635,�k�k��,3.8,��
2020/12/03,12:50,0.668,0.960,0.610,1.209,0.852,0.382,0.674,0.634,�k�k��,5.0,��
2020/12/03,13:00,0.670,0.959,0.608,1.207,0.852,0.382,0.675,0.635,�k�k��,4.4,��
2020/12/03,13:10,0.670,0.960,0.612,1.210,0.854,0.383,0.675,0.634,�k�k��,4.6,��
2020/12/03,13:20,0.669,0.959,0.611,1.211,0.853,0.384,0.675,0.632,�k�k��,4.5,��
2020/12/03,13:30,0.669,0.957,0.610,1.210,0.854,0.382,0.675,0.631,�k�k��,4.1,��
2020/12/03,13:40,0.669,0.958,0.611,1.211,0.853,0.383,0.676,0.632,�k�k��,5.3,��
2020/12/03,13:50,0.672,0.962,0.612,1.211,0.854,0.381,0.676,0.632,�k�k��,5.0,��
2020/12/03,14:00,0.672,0.959,0.611,1.211,0.856,0.382,0.677,0.633,�k�k��,5.5,��
2020/12/03,14:10,0.670,0.957,0.613,1.213,0.855,0.383,0.676,0.632,�k�k��,5.6,��
2020/12/03,14:20,0.669,0.959,0.610,1.211,0.855,0.383,0.676,0.633,�k,6.8,��
2020/12/03,14:30,0.671,0.959,0.613,1.209,0.854,0.383,0.675,0.632,�k,6.4,�L
2020/12/03,14:40,0.672,0.961,0.615,1.212,0.855,0.383,0.674,0.633,�k,5.2,�L
2020/12/03,14:50,0.672,0.963,0.611,1.211,0.855,0.383,0.677,0.634,�k,3.9,�L
2020/12/03,15:00,0.672,0.965,0.613,1.212,0.853,0.384,0.676,0.635,�k�k��,4.1,�L
2020/12/03,15:10,0.672,0.963,0.615,1.211,0.856,0.383,0.674,0.635,�k�k��,3.7,�L
2020/12/03,15:20,0.672,0.961,0.613,1.211,0.854,0.384,0.676,0.635,�k�k��,3.4,��
2020/12/03,15:30,0.673,0.964,0.614,1.210,0.854,0.383,0.677,0.635,�k�k��,3.9,��
2020/12/03,15:40,0.672,0.964,0.612,1.211,0.857,0.383,0.676,0.636,�k�k��,3.8,��
2020/12/03,15:50,0.671,0.965,0.612,1.208,0.854,0.383,0.676,0.634,�k�k��,3.4,��
2020/12/03,16:00,0.672,0.965,0.612,1.210,0.853,0.384,0.677,0.635,�k�k��,3.4,��
2020/12/03,16:10,0.670,0.964,0.612,1.214,0.853,0.383,0.677,0.636,�k�k��,3.1,��
2020/12/03,16:20,0.672,0.964,0.609,1.212,0.855,0.382,0.678,0.633,�k�k��,3.4,��
2020/12/03,16:30,0.669,0.964,0.610,1.210,0.852,0.383,0.677,0.634,�k��,3.0,��
2020/12/03,16:40,0.673,0.964,0.611,1.209,0.855,0.382,0.676,0.636,�k��,2.9,��
2020/12/03,16:50,0.671,0.967,0.611,1.210,0.855,0.382,0.677,0.634,�k��,2.8,��
2020/12/03,17:00,0.671,0.963,0.611,1.209,0.850,0.382,0.675,0.633,�k��,3.5,��
2020/12/03,17:10,0.670,0.963,0.611,1.210,0.853,0.383,0.676,0.635,�k��,3.9,��
2020/12/03,17:20,0.672,0.965,0.612,1.209,0.855,0.383,0.677,0.635,�k��,3.6,�L
2020/12/03,17:30,0.671,0.964,0.611,1.210,0.854,0.382,0.675,0.635,�k��,4.1,�L
2020/12/03,17:40,0.671,0.966,0.612,1.210,0.855,0.383,0.675,0.635,�k��,3.3,��
2020/12/03,17:50,0.672,0.963,0.612,1.212,0.852,0.381,0.676,0.635,�k��,4.4,��
2020/12/03,18:00,0.670,0.964,0.611,1.213,0.854,0.383,0.676,0.635,�k�k��,4.9,��
2020/12/03,18:10,0.670,0.964,0.611,1.211,0.853,0.382,0.676,0.634,�k��,4.2,��
2020/12/03,18:20,0.669,0.962,0.612,1.209,0.852,0.382,0.677,0.635,�k��,4.0,��
2020/12/03,18:30,0.669,0.966,0.611,1.210,0.853,0.380,0.675,0.634,�k��,4.3,��
2020/12/03,18:40,0.670,0.965,0.610,1.211,0.852,0.382,0.676,0.634,�k�k��,4.6,��
2020/12/03,18:50,0.671,0.964,0.611,1.210,0.854,0.382,0.676,0.634,�k�k��,5.2,��
2020/12/03,19:00,0.669,0.962,0.612,1.210,0.852,0.383,0.676,0.635,�k�k��,4.8,��
2020/12/03,19:10,0.668,0.964,0.611,1.210,0.855,0.381,0.675,0.635,�k�k��,4.7,��
2020/12/03,19:20,0.669,0.963,0.610,1.210,0.854,0.382,0.675,0.635,�k�k��,4.9,��
2020/12/03,19:30,0.668,0.965,0.609,1.210,0.852,0.383,0.677,0.634,�k�k��,5.1,��
2020/12/03,19:40,0.669,0.967,0.610,1.211,0.855,0.382,0.674,0.634,�k�k��,5.6,��
2020/12/03,19:50,0.670,0.967,0.611,1.210,0.854,0.382,0.675,0.634,�k�k��,5.9,��
2020/12/03,20:00,0.671,0.968,0.610,1.208,0.853,0.381,0.675,0.635,�k�k��,6.4,��
2020/12/03,20:10,0.671,0.965,0.611,1.210,0.853,0.381,0.673,0.634,�k�k��,6.8,�L
2020/12/03,20:20,0.669,0.967,0.612,1.212,0.856,0.383,0.675,0.635,�k�k��,7.5,�L
2020/12/03,20:30,0.671,0.965,0.612,1.211,0.853,0.382,0.677,0.634,�k�k��,7.8,�L
2020/12/03,20:40,0.670,0.967,0.612,1.210,0.853,0.382,0.675,0.636,�k�k��,8.3,�L
2020/12/03,20:50,0.671,0.965,0.613,1.210,0.854,0.381,0.677,0.636,�k�k��,9.5,�L
2020/12/03,21:00,0.671,0.964,0.611,1.210,0.855,0.382,0.676,0.635,�k�k��,8.2,�L
2020/12/03,21:10,0.670,0.968,0.612,1.211,0.854,0.383,0.675,0.635,�k�k��,8.0,�L
2020/12/03,21:20,0.671,0.966,0.613,1.209,0.853,0.382,0.675,0.634,�k�k��,6.5,�L
2020/12/03,21:30,0.671,0.963,0.612,1.208,0.854,0.383,0.677,0.633,�k�k��,6.5,�L
2020/12/03,21:40,0.669,0.964,0.612,1.212,0.855,0.384,0.676,0.634,�k�k��,7.4,�L
2020/12/03,21:50,0.670,0.963,0.611,1.210,0.854,0.382,0.677,0.635,�k�k��,8.6,�L
2020/12/03,22:00,0.670,0.968,0.612,1.211,0.855,0.382,0.675,0.636,�k�k��,7.3,��
2020/12/03,22:10,0.670,0.967,0.610,1.210,0.853,0.381,0.675,0.634,�k�k��,7.3,��
2020/12/03,22:20,0.670,0.965,0.611,1.211,0.853,0.383,0.676,0.635,�k�k��,8.3,��
2020/12/03,22:30,0.671,0.965,0.610,1.212,0.853,0.383,0.675,0.635,�k�k��,8.5,��
2020/12/03,22:40,0.669,0.965,0.610,1.211,0.854,0.383,0.677,0.635,�k�k��,8.8,��
2020/12/03,22:50,0.670,0.965,0.612,1.212,0.855,0.382,0.677,0.635,�k�k��,7.1,��
2020/12/03,23:00,0.671,0.967,0.611,1.210,0.853,0.383,0.678,0.635,�k�k��,6.9,��
2020/12/03,23:10,0.669,0.963,0.612,1.208,0.853,0.382,0.676,0.636,�k�k��,5.9,��
2020/12/03,23:20,0.670,0.965,0.610,1.210,0.852,0.382,0.676,0.636,�k�k��,5.2,��
2020/12/03,23:30,0.670,0.964,0.612,1.211,0.853,0.382,0.675,0.637,�k��,5.2,��
2020/12/03,23:40,0.668,0.965,0.611,1.212,0.854,0.382,0.675,0.635,�k��,6.0,��
2020/12/03,23:50,0.670,0.962,0.609,1.209,0.853,0.382,0.677,0.636,�k��,6.6,��
